time_stamp(utc),avg(mph),gust(mph),direction(deg),12m_air_temp(f),sonic_u(cm/s),sonic_v(cm/s),sonic_w(cm/s),pressure,2m_air_temp(f),pyranometer(W/m^2)
"2019-06-26 00:00:21+00",5.7,6.7,,81.1,-250,-6,10,1010.95,81.7,0
"2019-06-26 00:05:21+00",6.6,7.6,,81,-283,-14,8,1010.96,81.4,0
"2019-06-26 00:10:21+00",7.5,7.5,,81.2,-320,-17,13,1011.04,80.9,0
"2019-06-26 00:15:21+00",8.4,8.4,,81.4,-363,-36,10,1011.02,80.3,0
"2019-06-26 00:20:21+00",7.3,8.3,,81.3,-314,-32,8,1011.06,79.9,0
"2019-06-26 00:25:21+00",7.9,8.9,,81.2,-326,-67,8,1010.99,79.5,0
"2019-06-26 00:30:21+00",7.7,8.7,,81,-330,-56,6,1011.05,79.1,0
"2019-06-26 00:35:21+00",7.7,8.7,,80.5,-325,-56,6,1011.07,78.7,0
"2019-06-26 00:40:21+00",8.0,8.0,,80.2,-344,-48,8,1011.04,78.4,0
"2019-06-26 00:45:21+00",8.1,9.1,,80.2,-353,-42,7,1011.16,78.1,0
"2019-06-26 00:50:21+00",8.1,9.1,,80,-351,-34,9,1011.1,77.8,0
"2019-06-26 00:55:21+00",7.8,8.8,,79.9,-338,-25,-17,1011.09,77.6,0
"2019-06-26 01:00:21+00",7.5,8.5,,79.6,-319,-33,-28,1011.19,77.4,0
"2019-06-26 01:05:21+00",8.1,9.1,,79.5,-350,-22,13,1011.27,77.3,0
"2019-06-26 01:10:21+00",8.4,8.4,,79.4,-367,-14,16,1011.24,77.2,0
"2019-06-26 01:15:21+00",8.8,9.8,,79.2,-363,2,-34,1011.3,77.2,0
"2019-06-26 01:20:21+00",8.8,9.8,,78.8,-384,73,-32,1011.35,77.2,0
"2019-06-26 01:25:21+00",8.2,9.2,,78.4,-360,27,18,1011.42,77.1,0
"2019-06-26 01:30:21+00",8.0,8.0,,78,-354,16,13,1011.4,76.9,0
"2019-06-26 01:35:21+00",8.5,9.5,,77.8,-379,32,15,1011.46,76.6,0
"2019-06-26 01:40:21+00",8.9,9.9,,77.8,-385,74,19,1011.54,76.5,0
"2019-06-26 01:45:21+00",9.2,10.2,,77.6,-403,86,20,1011.65,76.3,0
"2019-06-26 01:50:21+00",8.9,8.9,,77.4,-396,37,16,1011.76,76.2,0
"2019-06-26 01:55:21+00",8.9,8.9,,77.2,-396,17,15,1011.73,76,0
"2019-06-26 02:00:21+00",9.1,10.1,,77.1,-405,20,15,1011.81,75.9,0
"2019-06-26 02:05:21+00",8.9,9.9,,77.1,-397,29,20,1011.93,75.8,0
"2019-06-26 02:10:21+00",7.9,8.9,,77,-351,47,17,1011.94,75.7,0
"2019-06-26 02:15:21+00",7.9,8.9,,76.9,-344,80,20,1011.98,75.6,0
"2019-06-26 02:20:21+00",8.2,9.2,,77,-357,92,17,1011.9,75.6,0
"2019-06-26 02:25:21+00",7.8,8.8,,77,-333,110,15,1012.03,75.5,0
"2019-06-26 02:30:21+00",7.2,8.2,,76.9,-307,113,20,1011.98,75.4,0
"2019-06-26 02:35:21+00",8.0,9.0,,76.7,-343,123,22,1012.07,75.3,0
"2019-06-26 02:40:21+00",7.5,9.5,,76.5,-316,113,22,1012.07,75.3,0
"2019-06-26 02:45:21+00",7.5,8.5,,76.5,-326,109,25,1012.04,75.2,0
"2019-06-26 02:50:21+00",7.8,8.8,,76.3,-321,141,24,1012.07,75.2,0
"2019-06-26 02:55:21+00",8.4,8.4,,76.3,-354,147,23,1012.04,74.9,0
"2019-06-26 03:00:21+00",7.2,8.2,,76.1,-309,104,19,1012.06,74.9,0
"2019-06-26 03:05:21+00",6.7,7.7,,76.1,-280,101,18,1012.13,74.8,0
"2019-06-26 03:10:21+00",6.1,7.1,,75.9,-261,80,14,1012.11,74.7,0
"2019-06-26 03:15:21+00",6.5,7.5,,75.8,-280,83,15,1012.22,74.5,0
"2019-06-26 03:20:21+00",6.6,6.6,,75.8,-286,89,16,1012.29,74.3,0
"2019-06-26 03:25:21+00",5.9,6.9,,75.7,-252,75,18,1012.33,74.1,0
"2019-06-26 03:30:21+00",6.8,7.8,,75.6,-294,66,18,1012.26,74,0
"2019-06-26 03:35:21+00",6.6,7.6,,75.5,-294,45,16,1012.35,73.8,0
"2019-06-26 03:40:21+00",7.7,8.7,,75.5,-345,40,16,1012.4,73.7,0
"2019-06-26 03:45:21+00",7.7,8.7,,75.3,-336,45,19,1012.48,73.6,0
"2019-06-26 03:50:21+00",8.7,9.7,,75.2,-381,69,15,1012.48,73.6,0
"2019-06-26 03:55:21+00",8.7,9.7,,75.3,-385,94,22,1012.46,73.6,0
"2019-06-26 04:00:21+00",7.6,8.6,,75.3,-337,76,20,1012.44,73.6,0
"2019-06-26 04:05:21+00",7.0,8.0,,75.2,-309,76,16,1012.41,73.6,0
"2019-06-26 04:10:21+00",5.6,6.6,,75,-247,67,15,1012.48,73.6,0
"2019-06-26 04:15:21+00",5.7,5.7,,74.7,-247,76,9,1012.52,73.5,0
"2019-06-26 04:20:21+00",5.7,5.7,,74.8,-239,82,13,1012.55,73.4,0
"2019-06-26 04:25:21+00",6.3,7.3,,74.8,-266,87,16,1012.62,73.2,0
"2019-06-26 04:30:21+00",7.0,7.0,,74.9,-293,109,17,1012.61,73,0
"2019-06-26 04:35:21+00",7.3,8.3,,74.9,-303,119,19,1012.57,73,0
"2019-06-26 04:40:21+00",8.0,9.0,,75.1,-325,143,20,1012.52,72.9,0
"2019-06-26 04:45:21+00",9.0,10.0,,75.3,-368,177,22,1012.5,72.9,0
"2019-06-26 04:50:21+00",9.1,10.1,,75.2,-359,182,18,1012.45,73,0
"2019-06-26 04:55:21+00",8.9,9.9,,75.1,-356,187,25,1012.45,73.1,0
"2019-06-26 05:00:21+00",9.1,10.1,,75,-385,155,24,1012.42,73.1,0
"2019-06-26 05:05:21+00",9.7,10.7,,75,-397,177,23,1012.42,73.2,0
"2019-06-26 05:10:21+00",9.6,10.6,,74.8,-394,183,20,1012.44,73.1,0
"2019-06-26 05:15:21+00",10.6,11.6,,74.7,-431,196,28,1012.44,73.1,0
"2019-06-26 05:20:21+00",10.5,12.5,,74.7,-435,201,25,1012.49,73.1,0
"2019-06-26 05:25:21+00",10.4,11.4,,74.7,-426,201,34,1012.51,73,0
"2019-06-26 05:30:21+00",10.2,11.2,,74.5,-429,181,33,1012.54,73,0
"2019-06-26 05:35:21+00",11.1,12.1,,74.5,-473,174,30,1012.55,73,0
"2019-06-26 05:40:21+00",11.4,12.4,,74.5,-471,192,27,1012.61,73.1,0
"2019-06-26 05:45:21+00",11.6,12.6,,74.5,-474,217,33,1012.66,73,0
"2019-06-26 05:50:21+00",11.8,12.8,,74.4,-475,220,35,1012.64,73,0
"2019-06-26 05:55:21+00",11.9,12.9,,74.4,-483,238,36,1012.65,72.9,0
"2019-06-26 06:00:21+00",12.4,13.4,,74.3,-498,240,31,1012.65,72.9,0
"2019-06-26 06:05:21+00",12.8,15.8,,74.3,-521,261,38,1012.69,72.9,0
"2019-06-26 06:10:21+00",12.8,14.8,,74.2,-514,259,31,1012.65,73,0
"2019-06-26 06:15:21+00",11.9,12.9,,74.1,-483,250,41,1012.62,72.9,0
"2019-06-26 06:20:21+00",12.1,13.1,,74.1,-495,247,33,1012.6,72.9,0
"2019-06-26 06:25:21+00",11.6,13.6,,73.9,-463,252,26,1012.56,72.8,0
"2019-06-26 06:30:21+00",12.0,14.0,,73.9,-480,249,35,1012.65,72.7,0
"2019-06-26 06:35:21+00",13.4,14.4,,73.9,-532,297,36,1012.63,72.7,0
"2019-06-26 06:40:21+00",13.5,14.5,,73.8,-540,297,42,1012.68,72.7,0
"2019-06-26 06:45:21+00",14.1,16.1,,73.7,-556,318,39,1012.68,72.7,0
"2019-06-26 06:50:21+00",13.9,14.9,,73.5,-543,308,35,1012.75,72.6,0
"2019-06-26 06:55:21+00",13.4,15.4,,73.4,-528,324,55,1012.85,72.5,0
"2019-06-26 07:00:21+00",14.9,15.9,,73.2,-584,333,33,1012.92,72.3,0
"2019-06-26 07:05:21+00",14.8,15.8,,73,-585,328,40,1013.05,72.2,0
"2019-06-26 07:10:21+00",14.3,16.3,,72.9,-558,330,48,1013.07,72.1,0
"2019-06-26 07:15:21+00",14.2,15.2,,72.8,-536,350,33,1013.03,72,0
"2019-06-26 07:20:21+00",14.3,16.3,,72.8,-537,367,37,1013.15,71.9,0
"2019-06-26 07:25:21+00",14.1,16.1,,72.8,-528,378,43,1013.21,71.9,0
"2019-06-26 07:30:21+00",13.7,15.7,,72.7,-501,383,52,1013.25,71.9,0
"2019-06-26 07:35:21+00",13.9,15.9,,72.7,-497,368,43,1013.23,71.8,0
"2019-06-26 07:40:21+00",14.1,15.1,,72.6,-505,392,34,1013.39,71.8,0
"2019-06-26 07:45:21+00",13.2,15.2,,72.5,-481,372,47,1013.42,71.7,0
"2019-06-26 07:50:21+00",14.1,16.1,,72.6,-477,414,36,1013.51,71.7,0
"2019-06-26 07:55:21+00",12.1,14.1,,72.4,-390,378,34,1013.49,71.7,0
"2019-06-26 08:00:21+00",13.5,14.5,,72.3,-445,408,29,1013.59,71.6,0
"2019-06-26 08:05:21+00",13.0,15.0,,72.3,-462,351,44,1013.65,71.5,0
"2019-06-26 08:10:21+00",15.0,18.0,,72.4,-498,441,20,1013.69,71.5,0
"2019-06-26 08:15:21+00",13.5,15.5,,72.4,-467,385,40,1013.8,71.5,0
"2019-06-26 08:20:21+00",12.2,13.2,,72.3,-399,370,46,1013.84,71.6,0
"2019-06-26 08:25:21+00",14.7,16.7,,72.4,-505,429,42,1013.84,71.6,0
"2019-06-26 08:30:21+00",15.0,17.0,,72.4,-496,467,43,1014,71.6,0
"2019-06-26 08:35:21+00",14.9,16.9,,72.3,-506,459,47,1014.14,71.6,0
"2019-06-26 08:40:21+00",16.6,18.6,,72.4,-519,532,41,1014.24,71.6,0
"2019-06-26 08:45:21+00",16.3,19.3,,72.3,-473,545,32,1014.2,71.6,0
"2019-06-26 08:50:21+00",14.0,16.0,,72.4,-386,492,50,1014.25,71.6,0
"2019-06-26 08:55:21+00",14.2,16.2,,72.3,-371,517,42,1014.34,71.6,0
"2019-06-26 09:00:21+00",14.9,15.9,,72.1,-415,515,34,1014.47,71.5,0
"2019-06-26 09:05:21+00",14.2,16.2,,72.1,-372,513,46,1014.57,71.4,0
"2019-06-26 09:10:21+00",14.3,18.3,,72.2,-380,505,40,1014.67,71.3,0
"2019-06-26 09:15:21+00",13.5,16.5,,72.3,-298,517,32,1014.68,71.3,0
"2019-06-26 09:20:21+00",11.4,13.4,,72.4,-205,461,18,1014.73,71.3,0
"2019-06-26 09:25:21+00",11.9,14.9,,72.5,-183,483,38,1014.74,71.3,0
"2019-06-26 09:30:21+00",11.6,13.6,,72.4,-158,481,26,1014.81,71.3,0
"2019-06-26 09:35:21+00",11.9,13.9,,72.3,-95,518,13,1014.74,71.1,0
"2019-06-26 09:40:21+00",11.0,13.0,,72.2,-122,468,14,1014.77,71,0
"2019-06-26 09:45:21+00",11.3,13.3,,72,-181,456,13,1014.86,70.8,0
"2019-06-26 09:50:21+00",10.0,12.0,,71.7,-211,388,24,1014.87,70.7,0
"2019-06-26 09:55:21+00",9.5,11.5,,71.6,-218,363,32,1014.91,70.6,0
"2019-06-26 10:00:21+00",9.4,11.4,,71.6,-206,360,21,1014.96,70.5,0
"2019-06-26 10:05:21+00",10.1,11.1,,71.6,-249,368,31,1014.97,70.5,0
"2019-06-26 10:10:21+00",9.5,10.5,,71.5,-252,345,29,1015.02,70.5,0
"2019-06-26 10:15:21+00",10.7,11.7,,71.5,-250,397,23,1015.09,70.4,0
"2019-06-26 10:20:21+00",10.0,11.0,,71.5,-264,359,30,1015.09,70.5,0
"2019-06-26 10:25:21+00",9.4,10.4,,71.1,-302,284,28,1015.23,70.5,35.6
"2019-06-26 10:30:21+00",10.3,11.3,,70.9,-318,331,33,1015.3,70.7,49.3
"2019-06-26 10:35:21+00",10.8,11.8,,70.7,-340,344,30,1015.45,70.9,52.9
"2019-06-26 10:40:21+00",11.2,13.2,,70.6,-375,347,34,1015.33,71.1,6.7
"2019-06-26 10:45:21+00",12.3,13.3,,70.2,-422,355,42,1015.42,70.7,7.6
"2019-06-26 10:50:21+00",12.0,13.0,,70.1,-405,348,36,1015.54,70.4,29.4
"2019-06-26 10:55:21+00",13.2,14.2,,69.9,-438,395,46,1015.65,70.4,23.9
"2019-06-26 11:00:21+00",11.4,13.4,,69.8,-379,357,43,1015.64,70.2,21
"2019-06-26 11:05:21+00",9.8,11.8,,70,-346,292,47,1015.77,70.4,111.7
"2019-06-26 11:10:21+00",11.9,13.9,,70.4,-384,367,47,1015.82,71,139.7
"2019-06-26 11:15:21+00",11.0,13.0,,70.5,-384,327,58,1015.82,71.3,56.9
"2019-06-26 11:20:21+00",11.4,13.4,,70.6,-366,368,39,1015.84,71.3,56.8
"2019-06-26 11:25:21+00",11.9,14.9,,70.9,-365,388,56,1015.98,71.5,29.1
"2019-06-26 11:30:21+00",11.6,13.6,,71.3,-336,388,64,1016.04,71.5,20.5
"2019-06-26 11:35:21+00",12.0,14.0,,71.5,-353,398,34,1016.1,71.7,125.9
"2019-06-26 11:40:21+00",13.5,15.5,,72,-390,450,47,1016.22,72.5,169.7
"2019-06-26 11:45:21+00",12.9,14.9,,72.5,-359,447,50,1016.14,73.2,174.7
"2019-06-26 11:50:21+00",14.8,15.8,,73,-419,505,42,1016.15,73.8,185.4
"2019-06-26 11:55:21+00",13.7,16.7,,73.2,-429,435,48,1016.21,74.2,193.9
"2019-06-26 12:00:21+00",13.8,16.8,,73.6,-388,481,54,1016.31,74.7,183.5
"2019-06-26 12:05:21+00",12.4,13.4,,73.9,-305,452,34,1016.43,75,204.7
"2019-06-26 12:10:21+00",9.6,10.6,,74.4,-247,346,61,1016.39,75.5,212
"2019-06-26 12:15:21+00",11.7,13.7,,74.5,-342,393,47,1016.43,76,218.1
"2019-06-26 12:20:21+00",12.7,14.7,,74.9,-343,452,61,1016.51,76.3,225.1
"2019-06-26 12:25:21+00",13.9,15.9,,74.9,-281,540,43,1016.53,76.5,232.8
"2019-06-26 12:30:21+00",15.1,17.1,,75.2,-358,566,32,1016.59,76.7,239.1
"2019-06-26 12:35:21+00",15.6,17.6,,75.3,-400,579,42,1016.66,76.9,247.6
"2019-06-26 12:40:21+00",15.6,17.6,,75.5,-347,593,33,1016.6,77.1,253.6
"2019-06-26 12:45:21+00",13.2,15.2,,75.7,-326,481,41,1016.78,77.3,263.1
"2019-06-26 12:50:21+00",14.8,16.8,,75.9,-343,564,28,1016.79,77.6,271
"2019-06-26 12:55:21+00",13.5,14.5,,76.1,-293,526,43,1016.85,77.8,266.9
"2019-06-26 13:00:21+00",12.9,14.9,,76.3,-258,503,24,1016.75,78,288.2
"2019-06-26 13:05:21+00",11.5,13.5,,77,-282,429,71,1016.79,78.6,295.9
"2019-06-26 13:10:21+00",13.3,16.3,,77,-188,551,15,1016.79,79.1,293
"2019-06-26 13:15:21+00",11.7,14.7,,77.4,-5,503,10,1016.81,79.8,314.7
"2019-06-26 13:20:21+00",12.9,14.9,,77.5,56,555,16,1016.81,80.3,322.7
"2019-06-26 13:25:21+00",13.7,15.7,,77.5,-133,588,9,1016.89,80.5,333
"2019-06-26 13:30:21+00",11.9,13.9,,77.7,145,477,4,1016.91,80.6,344.3
"2019-06-26 13:35:21+00",9.4,11.4,,78,98,396,4,1016.87,80.7,352.9
"2019-06-26 13:40:21+00",10.4,12.4,,78.4,26,449,3,1016.82,81.2,362.5
"2019-06-26 13:45:21+00",8.3,12.3,,78.4,-21,376,33,1016.79,81.6,374.7
"2019-06-26 13:50:21+00",9.0,12.0,,78.5,186,327,8,1016.67,81.8,380.4
"2019-06-26 13:55:21+00",7.9,9.9,,78.5,106,314,19,1016.69,81.9,398.3
"2019-06-26 14:00:21+00",8.4,10.4,,78.5,122,334,-12,1016.74,81.8,414.4
"2019-06-26 14:05:21+00",8.3,10.3,,78.7,164,310,-5,1016.78,82,398.7
"2019-06-26 14:10:21+00",9.2,11.2,,78.9,115,364,-11,1016.7,82.2,410.7
"2019-06-26 14:15:21+00",9.8,10.8,,78.7,294,290,11,1016.73,82.1,357.6
"2019-06-26 14:20:21+00",8.3,10.3,,79,217,257,51,1016.73,82.2,418.4
"2019-06-26 14:25:21+00",8.3,10.3,,79.2,345,118,16,1016.78,82.6,451.7
"2019-06-26 14:30:21+00",7.7,9.7,,79,285,165,21,1016.83,82.8,448.5
"2019-06-26 14:35:21+00",6.6,8.6,,79,225,167,23,1016.78,82.8,456.1
"2019-06-26 14:40:21+00",10.0,12.0,,79.1,411,175,18,1016.77,83.2,457.3
"2019-06-26 14:45:21+00",7.2,10.2,,79.2,290,121,16,1016.82,83.5,474.6
"2019-06-26 14:50:21+00",8.6,11.6,,78.8,379,4,36,1016.89,83.6,467.4
"2019-06-26 14:55:21+00",10.2,11.2,,78.9,447,-64,5,1016.8,83.7,478.4
"2019-06-26 15:00:21+00",8.9,9.9,,78.6,386,-93,-3,1016.85,82.4,478.6
"2019-06-26 15:05:21+00",9.5,10.5,,78.2,422,-36,-9,1016.83,81.7,486.3
"2019-06-26 15:10:21+00",7.1,10.1,,78.4,312,48,-10,1016.97,81.7,496.9
"2019-06-26 15:15:21+00",7.9,8.9,,78.6,351,-54,3,1016.95,81.9,503.5
"2019-06-26 15:20:21+00",8.4,10.4,,78.7,372,-38,-13,1016.95,82.2,505.1
"2019-06-26 15:25:21+00",9.3,10.3,,78.3,414,-20,-8,1016.97,81.7,503.8
"2019-06-26 15:30:21+00",7.8,8.8,,78.8,332,-70,30,1017.02,81.9,509.1
"2019-06-26 15:35:21+00",7.1,8.1,,78.8,309,-6,21,1017.03,82.2,516.9
"2019-06-26 15:40:21+00",8.9,9.9,,78.9,374,-120,-10,1016.98,82.4,518.6
"2019-06-26 15:45:21+00",8.4,9.4,,78.7,362,-102,-12,1016.97,81.9,520.8
"2019-06-26 15:50:21+00",8.4,9.4,,78.4,366,-81,-5,1017.01,81.4,524.9
"2019-06-26 15:55:21+00",8.2,10.2,,78.1,347,-114,36,1016.99,81.1,530.4
"2019-06-26 16:00:21+00",8.1,10.1,,78.1,349,-72,15,1017.02,81.1,534.3
"2019-06-26 16:05:21+00",7.6,9.6,,78.2,250,-215,43,1017.05,81.4,533.3
"2019-06-26 16:10:21+00",9.2,10.2,,77.8,324,-236,-2,1017.08,80.5,527.3
"2019-06-26 16:15:21+00",11.4,12.4,,77,418,-277,-9,1017.05,80.3,534.8
"2019-06-26 16:20:21+00",10.4,11.4,,77,287,-342,3,1017.07,79.9,536.9
"2019-06-26 16:25:21+00",9.6,10.6,,77.4,277,-317,-3,1016.94,80,541.2
"2019-06-26 16:30:21+00",11.6,12.6,,77.4,444,-252,6,1016.97,80.6,544.6
"2019-06-26 16:35:21+00",12.2,13.2,,76.5,460,-271,3,1016.88,79.9,548.5
"2019-06-26 16:40:21+00",10.4,12.4,,76.3,346,-300,4,1016.87,79.4,551.5
"2019-06-26 16:45:21+00",10.7,12.7,,76.3,336,-320,1,1016.9,79.4,554.4
"2019-06-26 16:50:21+00",11.5,12.5,,76.7,359,-355,-20,1016.8,79.3,554
"2019-06-26 16:55:21+00",11.3,12.3,,76.9,298,-384,20,1016.71,79.5,551.6
"2019-06-26 17:00:21+00",11.4,13.4,,76.9,333,-368,-20,1016.75,79.5,561.5
"2019-06-26 17:05:21+00",10.0,12.0,,76.8,277,-341,15,1016.66,79.3,562.4
"2019-06-26 17:10:21+00",10.5,12.5,,76.5,310,-328,8,1016.66,79.5,562
"2019-06-26 17:15:21+00",11.3,13.3,,76.7,306,-370,19,1016.64,79.2,564.2
"2019-06-26 17:20:21+00",11.1,12.1,,77,315,-365,2,1016.62,79.6,562.9
"2019-06-26 17:25:21+00",12.8,14.8,,76.6,363,-421,-14,1016.56,79.6,565.7
"2019-06-26 17:30:21+00",11.4,13.4,,77.1,317,-380,20,1016.58,79.7,565.4
"2019-06-26 17:35:21+00",11.3,13.3,,76.9,295,-392,-25,1016.66,79.3,562.4
"2019-06-26 17:40:21+00",12.0,13.0,,77.1,304,-431,-32,1016.57,79.3,561.9
"2019-06-26 17:45:21+00",13.0,14.0,,76.9,285,-486,-15,1016.49,79.5,560.7
"2019-06-26 17:50:21+00",13.2,15.2,,77,317,-477,-18,1016.43,79.5,560.5
"2019-06-26 17:55:21+00",13.4,14.4,,76.9,371,-447,-3,1016.27,79.2,562.4
"2019-06-26 18:00:21+00",13.3,15.3,,76.8,329,-468,10,1016.28,79.5,560.1
"2019-06-26 18:05:21+00",13.3,14.3,,76.9,345,-465,-28,1016.28,79.3,555.5
"2019-06-26 18:10:21+00",13.4,14.4,,77,337,-467,-29,1016.15,79.3,553.5
"2019-06-26 18:15:21+00",12.4,13.4,,77.1,245,-483,6,1016.17,79.2,550.4
"2019-06-26 18:20:21+00",11.9,14.9,,77.3,328,-405,0,1016.16,79.4,546.4
"2019-06-26 18:25:21+00",12.4,13.4,,77.1,315,-435,-3,1016.13,79.5,540.6
"2019-06-26 18:30:21+00",13.1,14.1,,77,258,-503,-27,1016.02,79.4,539.2
"2019-06-26 18:35:21+00",11.7,13.7,,76.8,75,-500,-19,1016.04,79,530.9
"2019-06-26 18:40:21+00",11.0,13.0,,76.3,56,-470,-30,1016.17,78.4,520.6
"2019-06-26 18:45:21+00",12.8,13.8,,76.1,182,-519,-36,1016.11,78.3,517.6
"2019-06-26 18:50:21+00",10.5,13.5,,76.6,101,-441,3,1016.14,78.6,512.1
"2019-06-26 18:55:21+00",11.2,14.2,,77.1,133,-455,15,1016.16,78.8,503.7
"2019-06-26 19:00:21+00",13.0,14.0,,77,156,-525,-23,1016.19,79,498
"2019-06-26 19:05:21+00",12.6,14.6,,76.6,139,-525,-25,1016.25,78.8,490.7
"2019-06-26 19:10:21+00",10.8,13.8,,76.7,91,-458,-13,1016.3,78.8,483.9
"2019-06-26 19:15:21+00",12.6,13.6,,76.6,233,-492,-9,1016.31,78.7,479
"2019-06-26 19:20:21+00",12.3,16.3,,76.9,139,-507,-13,1016.17,79,469.1
"2019-06-26 19:25:21+00",13.1,14.1,,76.4,151,-541,-11,1016.12,78.6,459.1
"2019-06-26 19:30:21+00",12.9,14.9,,76.3,84,-561,-18,1016.15,78.3,448.7
"2019-06-26 19:35:21+00",12.2,16.2,,76.5,93,-519,-16,1016.15,78.2,439.6
"2019-06-26 19:40:21+00",13.9,15.9,,76.4,85,-580,-20,1016.13,78.2,433.6
"2019-06-26 19:45:21+00",8.9,12.9,,76.7,26,-363,13,1016.25,78.4,422
"2019-06-26 19:50:21+00",11.6,15.6,,76.5,62,-495,-7,1016.25,77.9,412.7
"2019-06-26 19:55:21+00",12.2,15.2,,76.3,5,-528,-12,1016.25,78,404.7
"2019-06-26 20:00:21+00",11.8,15.8,,76.2,29,-503,1,1016.25,77.9,395.3
"2019-06-26 20:05:21+00",15.3,17.3,,76.3,59,-652,-35,1016.16,77.9,385.6
"2019-06-26 20:10:21+00",12.5,15.5,,76.5,73,-528,-19,1016.07,78,373.7
"2019-06-26 20:15:21+00",12.3,16.3,,76.9,13,-524,-33,1016.08,78.2,362.2
"2019-06-26 20:20:21+00",11.6,15.6,,77.1,-28,-485,-24,1016.18,78.3,350.9
"2019-06-26 20:25:21+00",13.0,17.0,,77.1,13,-543,-29,1016.13,78.3,336
"2019-06-26 20:30:21+00",12.7,15.7,,77.1,-10,-533,-19,1016.15,78.5,112.9
"2019-06-26 20:35:21+00",13.2,17.2,,77,13,-560,-14,1016.16,78.3,18.5
"2019-06-26 20:40:21+00",11.0,14.0,,77.1,20,-455,-5,1016.22,78.3,19
"2019-06-26 20:45:21+00",12.5,14.5,,76.7,49,-526,-17,1016.32,77.9,17.9
"2019-06-26 20:50:21+00",9.6,13.6,,76.7,13,-389,41,1016.28,77.9,18.3
"2019-06-26 20:55:21+00",10.6,12.6,,77.2,-1,-444,-14,1016.2,78.3,15.8
"2019-06-26 21:00:21+00",11.8,14.8,,77.9,-68,-498,-7,1016.17,78.8,248.2
"2019-06-26 21:05:21+00",10.8,15.8,,78,-25,-457,-2,1016.14,79.1,258.5
"2019-06-26 21:10:21+00",10.2,13.2,,78.3,-54,-404,-7,1016.12,79.3,251.5
"2019-06-26 21:15:21+00",13.0,18.0,,78,-50,-548,-24,1016.12,79.1,238.1
"2019-06-26 21:20:21+00",13.0,16.0,,77.7,-4,-552,-43,1016.17,78.8,13.3
"2019-06-26 21:25:21+00",8.7,11.7,,77.9,-21,-368,0,1016.18,78.9,216.3
"2019-06-26 21:30:21+00",10.0,14.0,,78.3,-81,-423,21,1016.16,79.3,217.7
"2019-06-26 21:35:21+00",12.8,15.8,,78,-35,-546,-35,1016.05,79,214.6
"2019-06-26 21:40:21+00",8.7,13.7,,78.1,-51,-354,7,1016.05,79,203.1
"2019-06-26 21:45:21+00",10.9,15.9,,78.7,-107,-473,-5,1016.15,79.6,193.9
"2019-06-26 21:50:21+00",12.5,15.5,,78.6,-131,-522,-22,1016.27,79.7,183.6
"2019-06-26 21:55:21+00",7.2,9.2,,78.3,-74,-296,32,1016.3,79.4,177.3
"2019-06-26 22:00:21+00",8.7,11.7,,78.2,-75,-353,12,1016.26,79.3,170.9
"2019-06-26 22:05:21+00",12.1,15.1,,78.1,-111,-498,-20,1016.33,79.1,163.4
"2019-06-26 22:10:21+00",11.4,16.4,,77.9,-114,-488,7,1016.29,78.8,152.3
"2019-06-26 22:15:21+00",9.5,12.5,,77.7,-62,-386,11,1016.32,78.5,137.4
"2019-06-26 22:20:21+00",11.0,13.0,,77.4,-39,-476,-24,1016.38,78.2,127.8
"2019-06-26 22:25:21+00",10.8,14.8,,76.9,-53,-457,-3,1016.36,77.7,126.2
"2019-06-26 22:30:21+00",12.0,15.0,,76.7,-125,-502,-14,1016.36,77.4,93.6
"2019-06-26 22:35:21+00",8.9,12.9,,76.6,-117,-369,31,1016.36,77.4,103.8
"2019-06-26 22:40:21+00",12.1,15.1,,76.2,-101,-499,-2,1016.48,76.9,91.6
"2019-06-26 22:45:21+00",8.4,11.4,,75.8,-59,-339,7,1016.52,76.4,65.6
"2019-06-26 22:50:21+00",9.0,12.0,,75.7,-66,-367,8,1016.7,76.2,69.1
"2019-06-26 22:55:21+00",11.0,15.0,,75.8,-89,-447,-16,1016.76,76.1,69.3
"2019-06-26 23:00:21+00",9.5,14.5,,75.8,-80,-393,6,1016.76,76.1,63.7
"2019-06-26 23:05:21+00",9.3,12.3,,75.8,-45,-377,-6,1016.71,76.1,40.1
"2019-06-26 23:10:21+00",8.9,10.9,,75.6,-54,-368,7,1016.73,75.9,29.7
"2019-06-26 23:15:21+00",9.7,12.7,,75.8,-92,-401,4,1016.69,76,2
"2019-06-26 23:20:21+00",7.6,10.6,,75.8,-83,-312,17,1016.69,75.9,23.5
"2019-06-26 23:25:21+00",9.3,12.3,,75.8,-113,-376,2,1016.63,76,17.7
"2019-06-26 23:30:21+00",6.3,7.3,,75.8,-32,-258,0,1016.75,76,16.3
"2019-06-26 23:35:21+00",6.9,9.9,,75.7,-52,-263,30,1016.67,75.9,19.8
"2019-06-26 23:40:21+00",6.5,7.5,,75.6,-17,-265,9,1016.59,75.8,10.8
"2019-06-26 23:45:21+00",7.6,9.6,,75.5,-46,-313,1,1016.6,75.7,3.8
"2019-06-26 23:50:21+00",9.0,12.0,,75.4,-105,-378,8,1016.56,75.6,0.3
"2019-06-26 23:55:21+00",8.0,10.0,,75.3,-85,-337,-4,1016.56,75.4,0
